Track COSMOS 2197 now! 10-day predictions COSMOS 2197 is classified as:
1 22034U 92042A 22141.41204428 .00000050 00000-0 21210-3 0 9997 2 22034 82.5924 99.5789 0013714 60.8348 66.1061 12.64182487377296